Burnet, TX

6:16 PM CDT on April 24, 2017 (GMT -0500)
Burnet Municipal-Craddock

Weather History for KBMQ - December, 2013

Change the Weather History Date:

Friday, December 6, 2013

  Actual Average Record
Temperature  
Mean Temperature 28 °F -  
Max Temperature 30 °F 59 °F 77 °F (1996)
Min Temperature 25 °F 40 °F 25 °F (2013)
Degree Days  
Heating Degree Days 38    
Moisture  
Dew Point 25 °F    
Average Humidity 83    
Maximum Humidity 93    
Minimum Humidity 75    
Precipitation  
Precipitation 0.00 in - - ()
Sea Level Pressure  
Sea Level Pressure 30.27 in    
Wind  
Wind Speed 12 mph (North)    
Max Wind Speed 17 mph    
Max Gust Speed 26 mph    
Visibility 8 miles    
Events Rain , Snow    
Averages and records for this station are not official NWS values.
T = Trace of Precipitation, MM = Missing Value Source: NWS Daily Summary

Daily Weather History Graph

Daily Weather History Graph

Search for Another Location

Airport or City:

Trip Planner

Search our weather history database for the weather conditions in past years. The results will help you decide how hot, cold, wet, or windy it might be!

Date:

Astronomy

Dec. 06, 2013 Rise Set
Actual Time 7:16 AM CST 5:31 PM CST
Civil Twilight 6:50 AM CST 5:57 PM CST
Nautical Twilight 6:20 AM CST 6:27 PM CST
Astronomical Twilight 5:51 AM CST 6:56 PM CST
Moon 10:32 AM CST (12/6) 9:53 PM CST (12/6)
Length of Visible Light 11h 07m
Length of Day
10h 14m
Waxing Crescent, 19% of the Moon is Illuminated
Dec 6
Waxing Crescent
Dec 9
First Quarter
Dec 17
Full
Dec 25
Last Quarter
Jan 1
New

Hourly Weather History & Observations

Time (CST) Temp. Windchill Dew Point Humidity Pressure Visibility Wind Dir Wind Speed Gust Speed Precip Events Conditions
12:35 AM 28.9 °F 19.2 °F 25.0 °F 85% 30.12 in 8.0 mi NNW 11.5 mph - 0.00 in Snow Light Snow
12:53 AM 28.9 °F 17.7 °F 25.0 °F 85% 30.13 in 4.0 mi NNW 15.0 mph - 0.00 in Snow Light Snow
1:53 AM 28.9 °F 19.8 °F 26.1 °F 89% 30.10 in 8.0 mi NNE 10.4 mph - 0.00 in Snow Light Snow
2:50 AM 30.2 °F 21.9 °F 28.4 °F 93% 30.09 in 2.5 mi North 9.2 mph - 0.00 in Snow Light Snow
2:53 AM 30.0 °F 22.4 °F 28.0 °F 92% 30.11 in 2.5 mi North 8.1 mph - 0.00 in Snow Light Snow
3:02 AM 30.9 °F 22.8 °F 28.9 °F 92% 30.09 in 3.0 mi NNW 9.2 mph - 0.00 in Snow Light Snow
3:53 AM 30.9 °F 21.2 °F 28.0 °F 89% 30.13 in 4.0 mi North 12.7 mph 23.0 mph 0.00 in Snow Light Snow
4:18 AM 30.0 °F 21.1 °F 28.0 °F 92% 30.11 in 5.0 mi North 10.4 mph - 0.00 in Snow Light Snow
4:53 AM 30.9 °F 21.2 °F 28.0 °F 89% 30.15 in 6.0 mi NNW 12.7 mph 19.6 mph 0.00 in Snow Light Snow
5:09 AM 30.9 °F 19.8 °F 28.0 °F 89% 30.13 in 7.0 mi North 16.1 mph 21.9 mph 0.00 in Snow Light Snow
5:23 AM 30.9 °F 21.7 °F 28.0 °F 89% 30.13 in 9.0 mi North 11.5 mph - 0.00 in Snow Light Snow
5:53 AM 30.0 °F 18.3 °F 27.0 °F 88% 30.17 in 7.0 mi North 17.3 mph 26.5 mph 0.00 in Snow Light Snow
6:34 AM 28.9 °F 18.2 °F 26.1 °F 89% 30.16 in 10.0 mi NNE 13.8 mph 20.7 mph 0.00 in   Overcast
6:53 AM 30.0 °F 19.5 °F 26.1 °F 85% 30.20 in 10.0 mi North 13.8 mph 21.9 mph 0.00 in   Overcast
7:09 AM 30.0 °F 19.5 °F 26.1 °F 85% 30.19 in 10.0 mi NNW 13.8 mph 20.7 mph N/A   Overcast
7:53 AM 30.0 °F 20.0 °F 26.1 °F 85% 30.25 in 10.0 mi NNW 12.7 mph 17.3 mph N/A   Overcast
8:20 AM 30.0 °F 18.7 °F 28.0 °F 92% 30.23 in 3.0 mi NNW 16.1 mph 23.0 mph 0.00 in Rain Light Freezing Rain
8:48 AM 30.2 °F 20.8 °F 28.4 °F 93% 30.24 in 10.0 mi North 11.5 mph - 0.00 in   Overcast
8:53 AM 30.0 °F 18.3 °F 26.1 °F 85% 30.28 in 10.0 mi North 17.3 mph 25.3 mph 0.00 in   Overcast
9:53 AM 30.0 °F 21.1 °F 25.0 °F 82% 30.30 in 9.0 mi North 10.4 mph 20.7 mph 0.00 in Snow Light Snow
10:53 AM 30.0 °F 20.0 °F 26.1 °F 85% 30.33 in 9.0 mi NNW 12.7 mph 20.7 mph 0.00 in Snow Light Snow
11:53 AM 30.0 °F 20.0 °F 25.0 °F 82% 30.33 in 10.0 mi North 12.7 mph 20.7 mph 0.00 in   Overcast
12:53 PM 28.9 °F 17.3 °F 24.1 °F 82% 30.33 in 10.0 mi NNW 16.1 mph 23.0 mph N/A   Overcast
1:53 PM 28.9 °F 20.4 °F 24.1 °F 82% 30.32 in 10.0 mi North 9.2 mph - N/A   Overcast
2:48 PM 30.2 °F 20.8 °F 23.0 °F 75% 30.30 in 10.0 mi North 11.5 mph 21.9 mph N/A   Mostly Cloudy
2:53 PM 30.0 °F 21.1 °F 23.0 °F 75% 30.32 in 10.0 mi North 10.4 mph 18.4 mph N/A   Mostly Cloudy
3:53 PM 30.0 °F 20.5 °F 23.0 °F 75% 30.34 in 10.0 mi North 11.5 mph 21.9 mph N/A   Overcast
4:53 PM 28.9 °F 19.8 °F 23.0 °F 78% 30.35 in 10.0 mi North 10.4 mph - N/A   Overcast
5:53 PM 28.9 °F 20.4 °F 23.0 °F 78% 30.38 in 10.0 mi North 9.2 mph - N/A   Mostly Cloudy
6:02 PM 28.9 °F 20.4 °F 23.0 °F 78% 30.35 in 10.0 mi North 9.2 mph - N/A   Scattered Clouds
6:26 PM 28.9 °F 21.1 °F 21.9 °F 75% 30.37 in 10.0 mi North 8.1 mph - N/A   Mostly Cloudy
6:53 PM 28.9 °F 18.6 °F 21.9 °F 75% 30.41 in 10.0 mi North 12.7 mph 20.7 mph N/A   Overcast
7:13 PM 28.0 °F 19.3 °F 21.0 °F 75% 30.39 in 10.0 mi North 9.2 mph 18.4 mph N/A   Scattered Clouds
7:53 PM 28.0 °F 18.1 °F 21.0 °F 75% 30.43 in 10.0 mi North 11.5 mph - N/A   Clear
8:53 PM 27.0 °F 17.3 °F 21.0 °F 78% 30.45 in 10.0 mi North 10.4 mph - N/A   Partly Cloudy
9:53 PM 27.0 °F 18.0 °F 21.0 °F 78% 30.47 in 10.0 mi North 9.2 mph 19.6 mph N/A   Scattered Clouds
10:53 PM 25.0 °F 13.6 °F 19.0 °F 78% 30.48 in 10.0 mi North 12.7 mph 19.6 mph N/A   Clear
11:53 PM 25.0 °F 16.3 °F 18.0 °F 75% 30.47 in 9.0 mi North 8.1 mph 23.0 mph 0.00 in Snow Light Snow